Regional Weather Roundup
Issued by NWS Charleston, WV

Home | Current Version | Previous Version | Graphics & Text | Print | Product List | Glossary On
Versions: 1 2 3 4 5 6 7 8 9 10 11 12 13 14 15 16 17 18 19 20 21 22 23 24 25 26 27 28 29 30 31 32 33 34 35 36 37 38 39 40 41 42 43 44 45 46 47 48 49 50
000
ASUS41 KRLX 300310
RWRRLX
West Virginia Regional Weather Roundup
National Weather Service Charleston WV
1100 PM EDT FRI MAY 29 2015

Note: "fair" indicates few or no clouds below 12,000 feet with no
significant weather and/or obstructions to visibility.

WVZ003-300400-
Northern Panhandle of West Virginia

CITY           SKY/WX    TMP DP  RH WIND       PRES   REMARKS
WHEELING       CLEAR     73  65  75 S6        30.14R
$$

WVZ009-300400-
Northwest West Virginia

CITY           SKY/WX    TMP DP  RH WIND       PRES   REMARKS
PARKERSBURG    PTCLDY    71  63  75 CALM      30.15S
$$

WVZ006-300400-
Western West Virginia

CITY           SKY/WX    TMP DP  RH WIND       PRES   REMARKS
HUNTINGTON     MOCLDY    69  67  93 CALM      30.12R
$$

WVZ015-300400-
West Central West Virginia

CITY           SKY/WX    TMP DP  RH WIND       PRES   REMARKS
CHARLESTON     MOCLDY    68  67  96 CALM      30.14S FOG
$$

WVZ022-031-300400-
North Central West Virginia

CITY           SKY/WX    TMP DP  RH WIND       PRES   REMARKS
CLARKSBURG     MOCLDY    70  64  81 S5        30.16S
MORGANTOWN     CLOUDY    72  61  68 SE5       30.17S
$$

WVZ025-035-042-045-300400-
Southern West Virginia

CITY           SKY/WX    TMP DP  RH WIND       PRES   REMARKS
BECKLEY        CLEAR     65  59  81 SE8       30.23S
LOGAN            N/A     68  64  88 CALM      30.15S
BLUEFIELD      CLEAR     67  59  75 S6        30.27R
LEWISBURG      PTCLDY    65  61  88 CALM      30.25F
$$

WVZ047-300400-
Northern Mountains of West Virginia

CITY           SKY/WX    TMP DP  RH WIND       PRES   REMARKS
ELKINS         MOCLDY    63  61  93 CALM      30.22S
$$

WVZ052-300400-
Eastern Panhandle of West Virginia

CITY           SKY/WX    TMP DP  RH WIND       PRES   REMARKS
MARTINSBURG    PTCLDY    71  66  84 CALM      30.19S
PETERSBURG     PTCLDY    67  64  89 CALM      30.20F
$$



USA.gov is the U.S. government's official web portal to all federal, state and local government web resources and services.